CAPE
70 72 235 531 763 820 656 583 388 543 404 279 277 165 495 364 614 1009 638 558 690 706 936 1244 1846 1824 1826 1884 1868 1804 1866 1932 2107 2104 1985 1864 2133 2153 1867 1442 1935 1784 1350 1218 1660 1745 1770 1798 1924
137 284 611 467 1016 470 508 201 208 404 388 328 286 375 397 516 488 485 574 728 650 753 809 745 2084 2461 2153 2317 2347 2244 2096 2114 2128 2246 2311 2187 2050 2005 1297 1843 1961 1633 1928 1637 1476 1672 1964 1841 2137
419 438 474 1060 637 298 492 164 449 271 205 436 340 173 705 454 483 672 543 743 736 478 313 1932 2084 2488 2183 2114 2100 2315 2212 2158 2083 2155 2041 2084 1970 1936 2008 1984 1964 1606 1727 1796 1781 1868 1918 1795 1620
355 796 951 1104 658 255 524 284 491 319 323 442 173 298 309 595 405 447 596 632 548 349 712 2027 2304 1993 2155 2283 2227 2144 1938 1883 1981 1944 2065 1977 2112 1466 1704 1805 2006 1753 1782 1872 1827 1604 1627 1693 1849
577 813 949 1156 330 646 534 332 488 447 524 447 254 341 216 332 515 500 552 562 405 194 864 1573 2425 2094 2161 2160 2015 2115 2070 1993 1995 1950 1845 1976 1949 1865 1662 1661 1762 1793 1830 1663 1671 1644 1385 1562 1619
513 690 1182 618 346 498 557 498 621 546 610 620 785 468 309 236 521 539 481 390 76 138 677 1029 2078 2005 2005 2016 1948 1975 1931 2070 2033 2026 1980 2178 1902 1923 1827 1920 1886 1827 1767 1676 1637 1324 1549 1653 1682
445 883 477 501 450 420 564 716 680 626 668 640 659 970 473 275 519 406 388 226 62 150 556 966 1519 1925 1826 2059 1940 2127 2241 2003 1904 2061 2032 1641 1518 1977 1878 1757 1687 1611 1504 1431 1525 1463 1384 1588 1850
262 781 230 338 328 518 951 753 732 672 849 665 626 756 573 462 482 300 272 103 52 411 400 892 1332 939 968 1556 1755 2046 2024 1877 1921 2092 2079 1939 2044 1768 1497 1779 1476 1481 1417 1351 1394 1514 1577 1681 1718
12 803 694 115 377 456 745 992 1215 1047 685 522 378 937 638 440 455 217 151 93 67 328 403 532 788 1290 958 1065 1911 1901 2010 2177 2094 2092 2049 2243 1433 1775 1495 1473 1267 1463 1451 1317 1303 1544 1799 2184 1828
61 876 287 299 305 669 876 889 1296 918 764 468 582 656 461 367 370 240 172 115 46 256 337 291 713 1569 766 582 1666 1715 1341 1471 1782 1541 2164 1618 2441 1930 981 1122 1175 1441 1554 1492 1441 1456 1588 1619 965
0 166 386 498 454 584 783 845 795 718 529 574 668 705 376 263 325 393 233 149 45 157 218 174 979 911 980 1133 1206 945 1366 1211 1630 1681 1884 1707 1015 1108 1380 1202 1428 1356 1624 1110 1260 1335 1225 489 993
16 36 127 358 510 498 628 889 849 571 30 519 664 612 374 376 460 453 242 227 60 114 151 266 525 1024 857 617 838 773 930 945 986 1389 1457 1519 2017 2052 1758 1246 2052 1748 1835 1497 1071 1522 1547 1256 1455
0 32 0 177 582 520 514 687 343 284 565 626 649 574 489 512 487 367 272 226 95 86 150 442 598 763 1170 1065 899 1021 721 907 1286 1291 1515 1489 1258 2266 1887 2425 1623 1776 1700 1183 1555 1328 1254 864 573
0 0 0 15 643 270 342 564 714 711 854 920 696 648 606 528 496 510 381 337 131 60 159 452 597 823 1181 1321 1109 1150 911 1426 1526 1666 1469 1620 2040 2185 2090 1952 1951 2058 273 952 1796 1662 1815 2034 856
0 0 0 0 358 402 294 333 490 962 948 1007 812 672 664 530 466 458 382 427 181 35 131 429 545 705 1248 1339 1122 1003 924 1141 1721 1804 1606 1644 2065 1766 2552 2511 1950 1356 1778 1667 1413 1223 1103 1210 635
0 0 0 0 16 109 182 398 346 1248 994 1026 934 657 632 542 450 444 414 428 156 4 118 380 266 518 1099 1251 1211 873 652 798 1457 1118 1349 1686 1974 1850 2159 1806 1062 1109 2309 1002 1311 1554 239 1012 389
0 0 0 0 0 0 19 303 17 1068 1028 1079 1041 704 636 627 485 440 365 437 164 0 58 302 293 354 849 1334 1142 873 1234 1205 1597 2076 1959 1880 1914 1787 2173 1984 1608 1915 1617 1953 1151 795 578 777 666
0 0 0 0 0 0 1 203 20 840 850 1047 1066 819 658 614 570 446 358 414 210 24 28 227 234 1410 1681 1260 1391 867 1011 1003 1231 1593 2197 2154 2494 1848 2101 1977 1882 1759 680 1407 779 1512 1086 1454 229
0 0 0 0 0 0 0 196 620 677 761 1019 1049 1000 586 793 579 490 354 328 188 92 69 264 836 2183 1036 673 766 876 620 972 2000 844 1582 1985 1732 1548 2076 1095 1781 2654 2035 1715 1084 1019 628 635 246
0 0 0 0 0 0 1 30 448 702 685 912 1038 1077 874 795 739 558 437 341 247 158 226 985 1397 2234 1277 680 1023 1037 1237 731 840 820 1806 1641 1734 1878 1736 1410 1891 1647 1869 1429 1217 1830 891 798 358
0 0 0 0 0 0 0 80 197 507 724 770 1004 1139 1028 630 896 623 529 453 345 237 359 1316 1885 2162 1695 1295 1023 1084 1399 1863 981 1947 1393 1863 1752 1908 2245 1930 2556 1940 1889 1465 1518 1340 2183 785 130
0 0 0 0 0 0 0 0 156 132 764 615 770 983 1044 928 685 808 688 619 499 378 284 1365 1766 2202 1796 2023 770 1767 1031 853 831 1175 917 1480 1735 1696 1986 1934 1998 2097 1452 1625 1703 1259 2275 1845 380
0 0 0 0 0 0 0 0 34 275 306 781 702 796 941 1025 650 756 846 810 659 479 336 563 2025 2346 2110 1874 1627 1292 1706 688 730 657 2812 2831 3123 1726 1504 1976 2053 1670 1740 1866 2044 1945 2381 843 1061
0 0 0 0 0 0 0 0 0 61 389 368 619 650 871 1014 919 679 795 913 790 679 548 423 1987 2546 2575 2331 1918 2622 2123 1983 639 1020 1363 1058 1343 1655 1920 1624 2150 3027 1959 2351 2056 2017 1934 2567 1680
0 0 0 0 0 0 0 0 0 0 30 211 542 649 726 875 1067 909 759 810 976 1011 1082 1168 1923 2810 2607 2640 1920 2290 3000 2841 2929 2544 1098 1335 651 686 2999 3053 2863 2446 2509 2496 2176 2452 1979 1977 1769
0 0 0 0 0 0 0 0 0 0 5 22 229 582 670 705 964 1043 904 848 1047 1288 1719 1878 2393 2811 2961 2552 2558 2161 2625 1058 1177 2177 956 614 425 675 3709 2542 2046 2102 2238 2126 3163 2350 2146 3101 1904
2 7 0 0 8 0 0 0 0 0 0 0 23 366 566 703 682 983 975 934 909 1378 1945 2115 2608 3137 3064 2530 2745 3107 2674 1656 1048 2307 3023 1464 1918 894 1311 1564 2436 2282 2273 2501 3615 2052 2697 2293 2656
1 19 3 1 6 5 4 5 0 0 0 0 0 116 311 683 742 771 879 934 972 979 1390 2054 2458 3249 3255 2799 2760 2780 2968 2735 1997 2670 3327 2393 2919 2514 1465 1822 1486 2265 2632 2727 3638 2794 3096 3190 2386
0 0 15 34 3 4 1 11 4 0 0 0 0 6 125 382 617 774 808 884 1040 1032 1044 1283 2063 2857 2870 2789 2928 2750 2650 2616 2223 2584 3020 3201 3394 3558 3064 2532 2191 2050 2268 2780 3858 3815 2692 3674 3743
0 18 38 109 51 3 8 35 42 5 0 0 0 0 0 37 346 657 723 945 985 1159 1162 1230 1304 1583 2370 2585 3004 2876 3025 2763 2462 1919 2711 3284 3596 3842 3826 3428 3063 2378 2212 3153 3390 2565 2425 2383 2518
CIN
-70 -41 -6 -0 -0 -0 -4 -1 -1 -0 -0 -2 -1 -8 -0 -11 -13 -0 -0 -0 -0 -0 -0 -0 -0 -0 -0 -0 -0 -0 -0 -0 -0 -0 -0 -0 -0 -0 -0 -2 -0 -0 -0 -0 -0 -0 -0 -0 -0
-22 -0 -0 -3 -0 -10 -4 -9 -4 -1 -0 -0 -0 -0 -0 -4 -10 -13 -1 -0 -0 -0 -0 -0 -0 -0 -0 -0 -0 -0 -0 -0 -0 -0 -0 -0 -0 -0 -3 -0 -0 -0 -0 -0 -0 -0 -0 -0 -0
-0 -0 -0 -0 -0 -14 -5 -9 -0 -18 -39 -0 -28 -19 -1 -0 -4 -8 -0 -0 -0 -0 -0 -0 -0 -0 -0 -0 -0 -0 -0 -0 -0 -0 -0 -0 -0 -0 -0 -0 -0 -0 -0 -0 -0 -0 -0 -0 -0
-0 -0 -0 -0 -0 -38 -2 -6 -0 -15 -9 -9 -37 -32 -27 -0 -6 -11 -0 -2 -0 -0 -0 -0 -0 -0 -0 -0 -0 -0 -0 -0 -0 -0 -0 -0 -0 -0 -0 -0 -0 -0 -0 -0 -0 -0 -2 -0 -0
-0 -0 -0 -0 -18 -0 -3 -1 -0 -1 -0 -1 -15 -47 -48 -0 -0 -0 -0 -0 -2 -15 -0 -0 -0 -0 -0 -0 -0 -0 -0 -0 -0 -0 -0 -0 -0 -0 -0 -0 -0 -0 -0 -0 -1 -1 -1 -2 -1
-2 -0 -0 -2 -40 -3 -0 -1 -1 -0 -0 -0 -0 -40 -28 -27 -0 -0 -0 -0 -85 -25 -0 -0 -0 -0 -0 -0 -0 -0 -0 -0 -0 -0 -0 -0 -0 -0 -0 -0 -0 -0 -0 -0 -3 -8 -2 -4 -3
-6 -11 -0 -2 -1 -3 -2 -1 -0 -0 -0 -0 -0 -0 -19 -23 -0 -0 -0 -23 -101 -29 -0 -0 -0 -0 -0 -0 -0 -0 -0 -0 -0 -0 -0 -0 -8 -0 -0 -0 -0 -0 -0 -3 -4 -8 -8 -6 -3
-0 -0 -8 -3 -14 -4 -0 -12 -7 -0 -0 -0 -11 -17 -15 -4 -0 -0 -3 -59 -1 -0 -0 -0 -0 -0 -0 -0 -0 -0 -0 -1 -0 -0 -0 -1 -0 -9 -11 -8 -0 -0 -1 -4 -6 -8 -10 -9 -10
-38 -0 -0 -68 -3 -59 -1 -0 -1 -38 -19 -24 -27 -0 -16 -10 -0 -6 -20 -56 -96 -0 -0 -0 -0 -0 -0 -0 -0 -0 -0 -0 -0 -3 -7 -14 -2 -2 -4 -13 -19 -3 -8 -11 -15 -17 -13 -12 -28
-13 -0 -34 -41 -0 -8 -0 -5 -0 -1 -0 -24 -0 -4 -47 -28 -5 -22 -9 -43 -117 -1 -1 -1 -0 -0 -0 -0 -1 -0 -0 -0 -0 -0 -4 -67 -7 -15 -0 -15 -29 -17 -20 -22 -27 -36 -27 -18 -11
-0 -7 -2 -30 -0 -1 -0 -0 -0 -0 -3 -7 -4 -21 -81 -72 -30 -8 -3 -6 -113 -5 -11 -13 -0 -0 -0 -1 -0 -0 -5 -0 -0 -0 -7 -1 -1 -3 -19 -12 -3 -13 -22 -6 -33 -24 -40 -203 -31
-12 -1 -1 -32 -0 -4 -0 -0 -0 -11 -94 -0 -13 -40 -111 -85 -32 -6 -3 -1 -63 -19 -21 -1 -0 -0 -0 -0 -0 -0 -0 -1 -0 -0 -0 -0 -3 -4 -45 -15 -6 -23 -7 -45 -93 -9 -6 -11 -36
-0 -7 -0 -1 -0 -4 -0 -0 -3 -3 -0 -0 -23 -36 -76 -33 -14 -7 -0 -2 -33 -44 -10 -0 -0 -0 -0 -1 -0 -0 -0 -0 -8 -0 -0 -1 -13 -2 -27 -9 -2 -27 -35 -2 -18 -14 -67 -62 -1
-0 -0 -0 -14 -0 -24 -3 -0 -0 -0 -0 -0 -17 -17 -34 -14 -5 -0 -0 -2 -13 -51 -14 -0 -0 -0 -0 -0 -0 -0 -0 -31 -3 -13 -0 -0 -26 -2 -1 -1 -6 -32 -267 -135 -15 -13 -31 -39 -41
-0 -0 -0 -0 -0 -0 -3 -1 -0 -0 -2 -1 -8 -5 -4 -0 -0 -0 -0 -0 -16 -85 -16 -0 -0 -0 -0 -0 -0 -0 -1 -0 -11 -9 -6 -0 -1 -0 -2 -9 -1 -29 -3 -4 -5 -8 -62 -1 -135
-0 -0 -0 -0 -42 -12 -1 -0 -1 -0 -0 -1 -2 -3 -0 -0 -0 -0 -0 -1 -13 -161 -27 -2 -0 -0 -0 -0 -0 -0 -0 -0 -30 -9 -0 -0 -0 -2 -3 -6 -0 -0 -9 -109 -10 -0 -178 -22 -126
-0 -0 -0 -0 -0 -0 -43 -5 -423 -3 -0 -0 -0 -1 -0 -0 -0 -0 -0 -0 -18 -0 -53 -6 -0 -0 -0 -0 -0 -0 -0 -0 -11 -20 -38 -0 -0 -0 -5 -53 -0 -6 -5 -28 -5 -81 -92 -39 -12
-0 -0 -0 -0 -0 -0 -0 -16 -236 -21 -0 -0 -0 -0 -0 -0 -3 -7 -0 -0 -7 -81 -82 -17 -5 -0 -0 -0 -0 -0 -0 -0 -0 -21 -23 -0 -2 -0 -0 -11 -2 -1 -0 -27 -105 -23 -23 -55 -44
-0 -0 -0 -0 -0 -0 -0 -0 -112 -0 -0 -0 -0 -1 -5 -0 -1 -4 -5 -3 -8 -44 -49 -20 -0 -0 -0 -0 -0 -0 -0 -0 -1 -0 -0 -0 -1 -0 -2 -83 -1 -3 -2 -4 -2 -1 -7 -19 -13
-0 -0 -0 -0 -0 -0 -0 -3 -13 -0 -1 -0 -0 -2 -0 -0 -0 -3 -15 -14 -22 -32 -28 -0 -0 -0 -0 -4 -1 -0 -0 -0 -0 -1 -0 -0 -0 -0 -0 -60 -14 -1 -3 -0 -2 -2 -81 -22 -37
-0 -0 -0 -0 -0 -0 -0 -0 -0 -2 -1 -0 -0 -0 -0 -2 -0 -8 -16 -24 -28 -42 -33 -0 -0 -0 -0 -0 -0 -0 -0 -1 -0 -11 -0 -0 -0 -0 -0 -0 -13 -0 -5 -1 -0 -1 -0 -7 -31
-0 -0 -0 -0 -0 -0 -0 -0 -1 -29 -0 -0 -0 -0 -0 -2 -3 -2 -10 -18 -40 -51 -55 -0 -0 -0 -0 -0 -2 -0 -0 -0 -0 -0 -0 -0 -0 -0 -0 -0 -0 -0 -0 -0 -0 -0 -1 -5 -8
-0 -0 -0 -0 -0 -0 -0 -0 -0 -4 -1 -0 -0 -0 -0 -2 -24 -18 -28 -35 -33 -30 -60 -33 -0 -0 -0 -0 -1 -0 -0 -0 -0 -0 -1 -0 -0 -0 -0 -0 -0 -0 -0 -1 -0 -1 -3 -1 -3
-0 -0 -0 -0 -0 -0 -0 -0 -0 -3 -0 -1 -0 -0 -0 -0 -13 -30 -29 -14 -18 -13 -17 -40 -0 -0 -0 -0 -6 -0 -0 -0 -0 -0 -0 -0 -0 -0 -0 -0 -0 -0 -0 -0 -0 -0 -4 -4 -1
-0 -0 -0 -0 -0 -0 -0 -0 -0 -0 -4 -1 -0 -0 -0 -0 -6 -22 -15 -28 -35 -15 -13 -7 -0 -0 -0 -0 -1 -0 -0 -1 -0 -0 -0 -1 -0 -0 -0 -0 -0 -0 -0 -0 -0 -0 -0 -0 -0
-0 -0 -0 -0 -0 -0 -0 -0 -0 -0 -0 -13 -4 -0 -0 -0 -0 -10 -26 -50 -56 -45 -7 -1 -0 -0 -0 -0 -0 -0 -0 -12 -3 -0 -0 -0 -0 -0 -0 -7 -0 -0 -0 -0 -0 -0 -0 -0 -1
-0 -0 -0 -0 -0 -0 -0 -0 -0 -0 -0 -0 -6 -0 -2 -0 -0 -7 -24 -23 -45 -35 -14 -16 -0 -0 -0 -0 -0 -0 -0 -8 -4 -1 -1 -0 -0 -0 -0 -0 -0 -0 -0 -0 -0 -0 -1 -0 -0
-0 -2 -0 -0 -0 -0 -0 -0 -0 -0 -0 -0 -0 -1 -1 -0 -1 -0 -6 -26 -33 -53 -45 -10 -0 -0 -0 -0 -0 -0 -0 -0 -1 -0 -0 -1 -0 -0 -2 -1 -1 -0 -0 -0 -0 -0 -0 -0 -0
-0 -0 -0 -0 -0 -0 -0 -0 -0 -0 -0 -0 -0 -6 -4 -2 -0 -0 -0 -20 -44 -28 -33 -42 -13 -1 -0 -0 -0 -0 -0 -0 -3 -0 -0 -0 -0 -0 -0 -0 -1 -0 -0 -0 -0 -0 -0 -0 -0
-0 -0 -0 -0 -0 -0 -0 -0 -2 -1 -0 -0 -0 -0 -0 -4 -0 -0 -0 -3 -26 -29 -29 -45 -52 -41 -19 -5 -0 -0 -0 -0 -0 -7 -0 -0 -0 -0 -0 -0 -0 -1 -1 -0 -0 -0 -0 -0 -0
Wind_Speed
15 14 6 5 3 6 3 6 11 17 15 5 13 6 14 13 6 11 22 20 23 19 18 16 14 15 14 13 13 12 11 11 11 11 10 10 10 9 8 9 9 9 10 10 10 10 10 11 10
13 10 4 3 5 2 1 8 9 12 11 13 12 13 10 16 13 23 20 24 21 20 19 17 13 13 13 13 13 13 12 11 11 10 10 10 10 10 8 8 8 10 10 10 9 10 11 11 11
11 8 2 4 0 1 2 7 14 18 15 12 9 10 11 11 22 17 22 22 21 20 19 17 14 14 14 13 12 12 11 10 11 11 10 10 9 12 9 9 10 9 10 10 10 11 11 11 11
6 4 6 6 10 12 10 8 18 18 13 14 11 12 9 13 18 19 26 23 20 20 19 16 15 14 13 13 12 11 12 10 10 10 10 11 11 10 9 9 9 8 10 9 10 10 9 10 9
5 6 4 8 9 14 11 11 11 15 13 18 13 12 10 17 15 24 23 21 20 20 18 16 14 14 14 13 12 12 11 11 11 11 11 11 12 11 10 9 9 8 8 9 9 9 9 10 9
4 6 8 3 9 11 10 11 12 9 13 13 16 14 11 9 19 22 20 19 20 20 18 16 14 13 13 14 13 11 12 12 11 12 12 11 11 11 9 9 9 7 8 8 8 9 11 12 9
12 8 12 12 4 8 7 8 6 8 14 11 13 14 15 19 24 22 20 18 19 20 18 16 15 13 13 12 12 12 12 12 12 13 12 12 11 10 9 9 9 8 7 7 8 7 7 8 8
7 13 15 11 8 7 13 16 9 11 14 15 12 6 19 20 25 21 19 18 18 20 16 15 15 13 12 12 11 11 11 11 11 11 13 13 12 11 10 11 8 9 8 7 8 8 7 10 10
4 7 6 5 1 4 13 12 12 5 11 6 6 13 22 27 25 19 19 18 15 15 17 16 16 13 13 12 11 11 10 11 12 10 10 14 9 11 12 13 8 9 7 7 8 8 11 15 14
13 9 2 15 6 4 9 10 13 11 12 7 9 15 25 28 23 18 21 19 18 16 17 15 16 14 12 11 11 11 11 10 9 8 10 8 5 6 11 9 8 8 8 8 8 9 13 13 5
17 13 13 12 9 3 11 9 11 11 15 16 14 24 26 24 22 23 21 21 18 16 13 16 13 14 13 12 9 7 7 6 7 5 4 7 6 5 2 6 7 8 9 8 11 5 7 12 6
19 14 12 7 0 4 7 9 12 10 12 19 19 26 27 27 25 22 21 20 20 17 14 15 13 9 8 8 8 7 7 6 7 8 3 4 4 3 7 1 6 3 7 12 6 6 5 11 10
20 19 7 12 6 9 5 10 7 8 12 18 22 26 27 26 26 23 20 20 19 17 15 15 14 9 8 7 5 5 7 5 8 8 6 5 3 3 5 3 1 6 3 5 7 2 8 7 6
11 19 15 11 10 11 11 9 10 14 13 18 21 25 26 27 27 23 21 21 20 18 16 16 14 12 10 8 3 4 6 4 3 4 7 1 3 2 4 5 3 5 9 8 7 3 1 1 4
16 11 16 18 14 9 13 16 15 16 16 18 20 21 24 25 25 22 21 20 19 17 17 16 15 14 11 8 7 5 4 7 4 5 6 4 0 2 1 3 3 6 3 4 3 4 2 1 4
18 19 18 20 20 16 14 16 19 19 17 19 20 20 22 24 23 21 20 19 19 17 17 16 14 15 12 9 8 7 6 6 4 6 7 6 4 2 3 3 2 3 2 8 5 3 3 4 1
15 16 22 19 23 18 21 10 4 10 18 18 19 20 21 23 22 21 20 19 19 18 17 16 15 16 13 11 9 8 7 4 5 3 5 8 5 4 3 2 5 3 2 5 2 9 7 6 6
18 19 20 22 17 19 20 8 23 30 19 19 19 20 21 23 24 22 22 20 19 18 18 16 14 13 13 10 7 7 8 7 5 8 6 7 5 4 1 4 5 6 2 4 8 4 5 4 6
19 16 21 18 19 16 21 19 22 18 19 19 19 20 21 23 23 22 21 20 20 19 19 17 15 12 11 10 10 9 8 8 5 5 7 8 3 5 3 2 6 4 3 4 3 3 3 3 2
22 15 15 18 14 16 18 21 15 17 18 19 19 19 21 22 25 23 23 22 21 20 19 17 15 13 11 10 8 8 7 9 7 7 8 6 7 5 6 8 4 3 4 3 3 1 5 2 6
20 20 16 15 12 11 19 21 22 16 20 18 19 18 20 22 25 25 25 24 22 22 20 18 16 15 13 12 8 7 7 5 8 5 7 8 8 8 5 5 5 4 5 7 5 5 7 1 3
20 17 19 18 17 14 20 16 22 18 18 20 20 19 21 23 24 26 26 24 24 23 21 19 18 16 15 13 12 12 10 9 8 7 8 9 9 8 8 6 6 4 4 3 5 4 5 5 5
18 16 20 19 17 17 20 19 17 26 25 24 22 22 21 24 25 27 28 27 25 23 22 20 19 17 16 15 12 12 12 9 9 9 10 6 8 8 8 8 9 6 7 4 2 2 5 4 4
18 18 19 16 16 18 23 22 21 18 30 25 24 21 23 24 25 25 26 25 23 23 22 22 20 19 17 17 16 14 14 11 10 9 10 9 9 9 8 8 7 8 4 7 6 5 5 6 5
17 21 14 15 17 18 23 25 19 19 21 28 26 26 23 23 23 24 25 25 25 26 25 22 22 21 20 19 18 15 14 13 9 10 9 10 10 9 12 8 8 8 7 7 4 6 4 5 4
26 22 15 26 16 19 24 25 23 25 19 21 24 27 25 23 23 24 25 25 26 26 24 22 23 23 22 20 19 17 16 12 12 10 10 10 9 9 10 10 9 9 9 8 8 7 8 7 6
21 27 25 27 23 22 20 27 22 26 27 23 12 21 24 27 23 26 25 25 25 24 24 24 23 23 23 23 18 18 16 16 14 13 12 10 9 7 9 10 10 10 9 8 9 8 8 6 6
23 17 24 19 26 25 20 24 19 23 20 26 19 14 19 27 26 24 24 25 24 25 24 23 22 23 23 22 20 18 18 17 14 13 13 13 8 9 5 10 10 11 10 9 8 8 8 8 8
18 21 16 18 24 19 17 14 13 23 22 20 26 19 18 18 24 23 23 23 24 23 24 24 23 22 22 22 20 20 18 19 17 14 14 12 11 9 10 9 10 10 11 10 9 10 6 10 10
26 20 28 16 20 21 19 11 11 16 20 20 21 25 23 20 19 22 22 23 23 24 24 24 25 25 23 22 21 21 20 19 18 18 15 15 13 12 10 11 10 11 11 11 11 12 10 10 9
Wind_Direction
183 196 220 197 254 231 336 85 150 132 108 137 129 114 94 53 34 99 139 132 134 135 131 147 138 137 134 129 128 128 126 127 128 128 128 125 119 120 105 102 90 86 86 88 85 101 93 97 96
188 183 198 251 254 117 101 96 90 97 106 104 89 110 118 68 89 125 132 131 137 141 149 137 138 130 130 133 131 130 134 132 135 131 130 122 125 114 109 100 98 83 80 85 81 90 95 94 86
209 189 213 245 231 330 148 152 102 109 105 123 90 66 28 83 121 123 138 128 152 143 126 117 132 136 132 124 126 120 122 126 129 129 124 126 113 113 119 99 98 95 90 86 92 96 99 92 95
183 202 233 251 216 227 88 150 113 126 150 79 127 81 91 107 140 133 140 148 148 127 120 127 133 130 131 124 119 120 118 126 122 123 132 119 127 117 110 96 87 92 88 84 82 92 99 107 98
227 255 262 247 194 89 137 148 134 143 130 123 157 97 95 133 139 149 148 152 141 127 127 133 129 129 123 124 126 122 125 120 122 117 125 125 113 114 105 101 94 86 90 90 88 89 99 113 109
239 209 258 313 309 114 145 136 133 143 138 106 109 112 134 164 149 149 154 150 137 127 140 134 131 132 132 128 129 125 124 123 119 119 120 116 114 114 117 106 102 101 96 103 100 93 96 98 105
243 272 274 223 216 137 135 150 110 154 126 151 123 112 125 173 154 153 159 144 140 139 123 133 134 135 129 127 125 126 125 127 124 123 121 121 124 121 114 108 102 105 105 114 115 106 105 115 116
264 279 273 316 309 52 132 116 195 130 91 95 141 161 155 160 159 156 157 151 145 133 143 144 138 149 148 145 129 124 125 121 129 132 134 137 130 136 130 133 99 100 113 120 122 121 119 128 134
200 253 265 263 153 172 137 142 106 85 130 121 184 148 149 155 162 160 155 153 143 141 149 152 150 145 145 139 132 135 132 131 133 143 158 174 135 150 143 82 111 106 114 131 143 155 151 141 147
232 224 57 235 24 156 136 136 126 170 151 150 158 112 149 158 154 166 166 154 154 153 160 150 147 144 161 147 161 154 148 164 169 136 191 209 75 59 103 107 123 121 142 148 175 196 196 187 168
217 260 276 313 18 58 151 145 136 184 183 156 150 140 149 159 159 182 168 159 158 163 171 151 134 133 190 113 183 160 175 139 122 130 218 101 125 145 220 137 157 148 189 171 186 139 249 164 268
256 248 265 330 347 344 193 156 168 126 261 132 136 145 155 169 171 178 172 162 156 171 173 147 138 170 135 160 193 170 129 161 155 148 170 145 207 151 70 184 193 62 172 184 38 158 149 152 139
225 260 218 229 157 292 168 202 145 183 83 111 139 150 164 172 173 177 179 162 161 172 168 146 148 171 131 209 196 167 138 176 114 152 203 174 181 142 145 104 256 126 226 166 93 338 22 21 132
229 236 253 233 225 176 255 187 183 139 124 131 149 160 169 177 175 176 178 166 166 176 167 152 163 171 149 211 163 142 167 107 118 134 133 262 333 141 139 158 195 268 108 263 108 74 112 52 282
259 247 236 241 218 198 225 214 197 123 150 149 158 168 171 179 178 174 176 170 171 179 167 160 171 170 162 175 177 208 166 148 163 104 145 165 134 172 21 74 188 86 121 94 122 146 310 281 129
232 242 248 209 221 222 228 223 182 145 163 160 161 170 175 179 177 177 179 175 172 183 169 169 184 166 173 170 181 210 171 182 136 152 150 157 129 118 211 113 182 65 233 68 273 183 30 63 264
207 229 223 235 201 221 215 224 56 184 175 163 164 169 178 179 178 183 184 178 171 181 171 181 190 167 177 161 180 208 139 228 165 98 103 152 161 165 132 189 113 240 214 139 298 122 207 209 215
209 216 237 218 200 210 217 211 132 224 177 164 167 169 180 183 185 179 187 183 176 179 173 191 185 166 169 162 188 201 150 227 203 144 142 165 167 164 152 186 137 241 196 87 140 244 165 285 126
263 226 233 234 214 205 228 213 147 185 173 165 170 174 181 185 187 178 190 185 182 181 176 188 185 167 171 180 193 190 178 206 188 197 135 147 188 177 219 160 156 271 346 51 124 156 175 297 162
253 257 253 241 213 212 214 236 169 179 182 172 177 178 182 184 180 185 190 187 189 184 182 183 187 172 187 192 199 197 201 188 197 202 161 209 186 169 204 142 232 176 190 177 196 224 301 289 102
229 241 240 253 225 249 242 233 213 183 183 183 182 184 184 186 183 187 189 192 191 187 186 182 187 178 188 198 193 199 205 209 201 179 175 191 191 184 234 158 120 170 271 160 207 238 258 221 152
236 219 257 254 250 221 219 238 215 168 201 187 185 186 186 187 191 185 189 195 193 191 188 183 184 184 187 210 185 189 203 204 183 206 193 169 199 195 180 168 166 197 257 106 191 214 285 264 171
242 241 221 246 251 249 238 226 245 187 207 184 194 186 196 185 190 189 192 192 195 192 189 189 183 187 190 194 211 183 218 201 187 201 154 217 168 204 201 176 171 182 214 187 231 111 265 244 296
236 243 251 235 234 238 235 247 225 214 198 212 181 192 194 188 189 195 192 189 196 193 192 191 183 189 195 188 210 196 195 229 206 205 165 189 179 188 208 191 198 191 176 179 199 181 227 288 297
215 224 222 223 218 235 223 231 243 219 228 206 193 187 191 197 190 195 191 190 192 195 195 190 183 188 190 192 194 206 202 212 240 178 216 199 201 195 168 199 191 191 213 183 184 202 218 222 247
212 225 227 218 216 226 230 224 224 247 254 230 216 182 187 195 188 196 197 193 191 196 192 193 184 187 189 195 194 199 199 201 218 205 207 222 215 199 149 179 204 218 190 200 164 194 218 191 210
230 216 244 258 238 237 212 218 234 214 234 250 269 192 184 185 195 193 196 198 196 194 194 194 189 187 191 194 192 191 200 211 198 215 212 223 222 219 177 191 197 215 212 212 177 226 204 148 218
263 259 220 236 249 254 235 221 205 209 216 224 226 236 193 192 183 197 195 198 199 196 197 195 196 191 192 194 193 194 193 200 211 202 201 217 225 231 209 194 207 211 215 212 210 209 196 177 223
222 247 257 249 231 247 247 232 233 194 198 221 218 205 234 218 183 195 193 194 198 200 197 198 195 193 192 201 197 197 196 197 204 203 202 215 212 222 210 227 207 215 212 211 206 239 230 185 207
245 247 232 240 227 235 256 239 291 200 184 204 232 218 218 225 214 195 197 191 193 199 198 197 199 199 195 200 198 197 194 195 197 205 204 198 211 211 213 216 213 214 215 209 206 214 223 222 217